CAPE
0 0 0 0 0 0 3 4 6 3 1 6 2 1 2 3 5 15 29 14 18 21 21 7 2 4 1 0 0 0 3 7 13 4 9 10 16 7 13 41 6 111 61
0 0 0 0 1 1 1 3 2 7 7 9 6 1 5 0 1 3 1 15 9 7 8 11 25 12 4 3 0 4 6 7 8 6 0 8 1 0 0 20 17 28 66
0 0 0 0 3 1 0 1 3 2 10 10 10 0 1 1 0 2 1 1 2 1 0 2 11 20 10 5 3 2 2 1 1 2 1 0 7 0 0 5 25 32 37
0 0 0 1 2 0 1 0 5 1 5 8 13 16 6 22 6 1 5 6 3 0 1 1 1 9 11 9 7 4 0 2 3 13 7 1 1 3 12 12 13 25 16
0 0 0 1 0 1 0 0 0 1 1 7 10 7 6 10 27 4 0 4 2 2 11 5 1 4 29 19 18 8 6 13 2 2 5 12 4 4 0 0 8 13 9
0 0 0 0 0 0 0 0 0 0 2 3 4 13 9 14 16 6 3 7 2 1 1 4 4 4 5 17 15 0 0 7 12 15 10 5 3 5 2 3 0 0 0
0 0 0 0 0 0 0 0 0 0 0 1 4 3 10 20 16 8 8 8 3 1 1 0 10 4 1 2 7 6 4 5 10 2 5 4 4 0 0 0 0 0 0
0 0 0 0 0 0 0 0 0 0 0 0 0 2 2 5 8 10 4 5 3 2 1 3 2 8 9 1 1 2 2 1 1 4 0 0 0 0 0 0 0 0 0
0 0 0 0 0 0 0 0 0 0 0 0 0 0 0 2 9 10 1 0 0 0 1 0 11 11 12 2 0 1 1 1 1 3 2 3 3 4 1 0 0 0 0
0 0 0 0 0 0 0 0 0 0 0 0 0 0 0 1 3 0 4 0 0 0 0 1 2 2 10 29 0 0 0 0 0 0 1 0 0 0 2 1 1 0 1
0 0 0 0 0 0 0 0 0 0 0 0 0 0 0 2 1 5 5 1 0 0 0 0 3 6 7 7 5 2 1 2 1 1 0 0 0 1 0 1 1 0 1
0 0 0 0 0 0 0 0 0 0 0 0 0 0 0 0 1 2 3 3 1 0 0 1 1 4 2 2 1 1 1 2 0 1 1 0 0 0 0 0 1 0 0
0 0 0 0 0 0 0 0 0 0 0 0 0 0 0 0 0 0 0 0 0 0 0 0 0 0 1 1 4 5 2 0 0 0 0 0 0 0 0 1 0 0 0
0 0 0 0 0 0 0 0 0 0 0 0 0 0 0 0 0 0 0 0 0 0 0 0 0 0 0 1 0 2 2 1 1 0 0 2 1 0 0 0 0 0 2
0 0 0 0 0 0 0 0 0 0 0 0 0 0 0 0 0 1 0 0 0 0 0 0 0 0 0 0 0 0 1 2 0 1 2 2 1 1 1 1 0 0 0
0 0 0 0 0 0 0 0 0 0 0 0 0 0 0 0 0 0 0 0 0 0 0 0 0 0 0 0 0 0 0 0 1 0 0 0 0 1 3 1 0 0 0
0 0 0 0 0 0 0 0 0 0 0 0 0 0 0 0 0 0 0 0 0 0 0 0 0 0 0 0 0 0 0 0 0 0 1 1 1 1 0 0 1 1 3
0 0 0 0 0 0 0 0 0 0 0 0 0 0 0 0 0 0 0 0 0 0 0 0 0 0 0 0 0 0 0 0 0 0 1 0 0 0 1 0 0 0 0
0 0 0 0 0 0 0 0 0 0 0 0 0 0 0 0 0 0 0 0 0 0 0 0 0 0 0 0 0 0 0 0 0 0 0 0 0 0 0 1 0 2 2
0 0 0 0 0 0 0 0 0 0 0 0 0 0 0 0 0 0 0 0 0 0 0 0 0 0 0 0 0 0 0 0 0 0 0 0 0 0 0 0 0 0 0
0 0 0 0 0 0 0 0 0 0 0 0 0 0 0 0 0 0 0 0 0 0 0 0 0 0 0 0 0 0 0 0 0 0 0 0 0 0 0 0 0 0 0
0 0 0 0 0 0 0 0 0 0 0 0 0 0 0 0 0 0 0 0 0 0 0 0 0 0 0 0 0 0 0 0 0 0 0 0 0 0 0 0 0 1 0
0 0 0 0 0 0 0 0 0 0 0 0 0 0 0 0 0 0 0 0 0 0 0 0 0 0 0 0 0 0 0 0 0 0 0 0 0 0 0 0 0 0 0
1 0 0 0 0 0 0 0 0 0 0 0 0 0 0 0 0 0 0 0 0 0 0 0 0 0 0 0 0 0 0 0 0 0 0 0 0 0 0 0 0 0 0
0 1 0 0 0 0 0 0 0 0 0 0 0 0 0 0 0 0 0 0 0 0 0 0 0 0 0 0 0 0 0 0 0 0 0 0 0 0 0 0 0 0 0
0 0 0 0 1 0 0 0 0 0 0 0 0 0 0 0 0 0 0 0 0 0 0 0 0 0 0 0 0 0 0 0 0 0 0 0 0 0 0 0 0 0 0
CIN
-0 -0 -2 -0 -1 -0 -1 -1 -1 -2 -1 -0 -0 -0 -1 -9 -4 -2 -1 -1 -2 -4 -3 -2 -14 -1 -0 -4 -12 -3 -3 -1 -0 -8 -2 -0 -8 -59 -50 -0 -3 -3 -7
-0 -0 -2 -0 -1 -1 -2 -1 -2 -0 -1 -0 -0 -0 -0 -0 -0 -4 -1 -2 -0 -1 -1 -1 -0 -1 -0 -8 -7 -3 -1 -2 -0 -0 -0 -3 -8 -0 -11 -8 -9 -0 -4
-0 -0 -0 -1 -1 -1 -2 -1 -1 -1 -1 -0 -1 -2 -3 -0 -0 -0 -0 -0 -0 -0 -0 -1 -1 -1 -2 -1 -0 -0 -2 -3 -2 -3 -0 -2 -3 -1 -0 -2 -1 -6 -2
-0 -0 -0 -1 -1 -2 -1 -0 -1 -1 -1 -1 -1 -0 -0 -0 -0 -1 -1 -0 -0 -0 -0 -0 -0 -6 -1 -1 -1 -0 -7 -0 -2 -0 -1 -0 -1 -8 -10 -18 -16 -7 -9
-0 -0 -0 -0 -1 -1 -0 -0 -0 -1 -2 -1 -2 -0 -0 -1 -0 -1 -0 -0 -0 -0 -0 -0 -0 -5 -0 -1 -3 -2 -1 -1 -0 -2 -0 -0 -1 -1 -0 -0 -9 -17 -23
-0 -0 -0 -0 -1 -1 -0 -0 -0 -1 -1 -1 -2 -0 -1 -0 -1 -1 -2 -0 -0 -0 -0 -1 -0 -0 -1 -1 -0 -0 -0 -0 -1 -0 -1 -0 -1 -2 -2 -2 -2 -0 -0
-0 -0 -0 -0 -0 -1 -0 -0 -0 -0 -0 -1 -1 -3 -1 -0 -1 -1 -0 -2 -1 -0 -0 -3 -0 -0 -0 -2 -0 -0 -0 -0 -0 -0 -1 -2 -4 -0 -0 -0 -0 -0 -0
-0 -0 -0 -0 -0 -0 -0 -0 -0 -0 -1 -0 -0 -1 -2 -1 -1 -1 -1 -1 -2 -0 -1 -7 -0 -0 -0 -0 -0 -0 -0 -0 -0 -0 -0 -0 -0 -0 -0 -0 -0 -0 -0
-0 -0 -0 -0 -0 -0 -0 -0 -0 -0 -0 -1 -0 -0 -0 -0 -1 -1 -1 -1 -1 -1 -0 -0 -0 -0 -0 -0 -0 -0 -0 -0 -0 -0 -0 -0 -0 -0 -0 -0 -0 -0 -0
-0 -0 -0 -0 -0 -0 -0 -1 -1 -1 -0 -0 -0 -0 -0 -1 -0 -2 -0 -0 -1 -1 -0 -0 -1 -2 -0 -0 -0 -0 -0 -0 -0 -0 -1 -0 -0 -0 -0 -0 -0 -0 -0
-0 -0 -0 -0 -0 -0 -0 -0 -1 -0 -0 -0 -0 -0 -0 -1 -2 -1 -1 -0 -0 -0 -0 -0 -1 -0 -1 -1 -0 -2 -1 -1 -2 -2 -1 -0 -0 -0 -0 -0 -0 -0 -0
-0 -0 -0 -0 -0 -0 -0 -0 -0 -0 -0 -0 -0 -0 -0 -0 -0 -0 -1 -1 -1 -0 -0 -1 -0 -1 -1 -0 -0 -0 -0 -1 -0 -1 -1 -0 -0 -0 -0 -0 -0 -0 -0
-0 -0 -0 -0 -0 -0 -0 -0 -0 -0 -0 -0 -0 -0 -0 -0 -0 -0 -0 -0 -0 -0 -0 -0 -0 -0 -0 -1 -1 -0 -1 -0 -0 -0 -0 -0 -0 -0 -0 -1 -18 -0 -0
-0 -0 -0 -0 -0 -0 -0 -0 -0 -0 -0 -0 -0 -0 -0 -0 -0 -0 -0 -0 -0 -0 -0 -0 -0 -0 -0 -0 -0 -0 -0 -0 -1 -0 -1 -4 -1 -0 -0 -0 -0 -0 -1
-0 -0 -0 -0 -0 -0 -0 -0 -0 -0 -0 -0 -0 -0 -0 -0 -0 -0 -0 -0 -0 -0 -0 -0 -0 -0 -0 -0 -0 -1 -1 -1 -0 -1 -1 -1 -1 -4 -9 -4 -1 -0 -0
-0 -0 -0 -0 -0 -0 -0 -0 -0 -0 -0 -0 -0 -0 -0 -0 -0 -0 -0 -0 -0 -0 -0 -0 -0 -0 -0 -0 -0 -0 -0 -1 -1 -0 -0 -0 -0 -0 -1 -1 -1 -0 -0
-0 -0 -0 -0 -0 -0 -0 -0 -0 -0 -0 -0 -0 -0 -0 -0 -0 -0 -0 -0 -0 -0 -0 -0 -0 -0 -0 -0 -0 -0 -0 -0 -0 -0 -0 -0 -0 -1 -2 -1 -1 -1 -1
-0 -0 -0 -0 -0 -0 -0 -0 -0 -0 -0 -0 -0 -0 -0 -0 -0 -0 -0 -0 -0 -0 -0 -0 -0 -0 -0 -0 -0 -0 -0 -0 -0 -0 -0 -0 -0 -0 -0 -0 -0 -0 -0
-0 -0 -0 -0 -0 -0 -0 -0 -0 -0 -0 -0 -0 -0 -0 -0 -0 -0 -0 -0 -0 -0 -0 -0 -0 -0 -0 -0 -0 -0 -0 -0 -0 -0 -0 -0 -0 -0 -0 -0 -0 -0 -0
-0 -0 -0 -0 -0 -0 -0 -0 -0 -0 -0 -0 -0 -0 -0 -0 -0 -0 -0 -0 -0 -0 -0 -0 -0 -0 -0 -0 -0 -0 -0 -0 -0 -0 -0 -0 -0 -0 -0 -0 -0 -0 -0
-0 -0 -0 -0 -0 -0 -0 -0 -0 -0 -0 -0 -0 -0 -0 -0 -0 -0 -0 -0 -0 -0 -0 -0 -0 -0 -0 -0 -0 -0 -0 -0 -0 -0 -0 -0 -0 -0 -0 -0 -0 -0 -0
-0 -0 -0 -0 -0 -0 -0 -0 -0 -0 -0 -0 -0 -0 -0 -0 -0 -0 -0 -0 -0 -0 -0 -0 -0 -0 -0 -0 -0 -0 -0 -0 -0 -0 -0 -0 -0 -0 -0 -0 -0 -0 -0
-0 -0 -0 -0 -0 -0 -0 -0 -0 -0 -0 -0 -0 -0 -0 -0 -0 -0 -0 -0 -0 -0 -0 -0 -0 -0 -0 -0 -0 -0 -0 -0 -0 -0 -0 -0 -0 -0 -0 -0 -0 -0 -0
-0 -0 -0 -0 -0 -0 -0 -0 -0 -0 -0 -0 -0 -0 -0 -0 -0 -0 -0 -0 -0 -0 -0 -0 -0 -0 -0 -0 -0 -0 -0 -0 -0 -0 -0 -0 -0 -0 -0 -0 -0 -0 -0
-0 -0 -0 -0 -0 -0 -0 -0 -0 -0 -0 -0 -0 -0 -0 -0 -0 -0 -0 -0 -0 -0 -0 -0 -0 -0 -0 -0 -0 -0 -0 -0 -0 -0 -0 -0 -0 -0 -0 -0 -0 -0 -0
-0 -0 -0 -0 -0 -0 -0 -0 -0 -0 -0 -0 -0 -0 -0 -0 -0 -0 -0 -0 -0 -0 -0 -0 -0 -0 -0 -0 -0 -0 -0 -0 -0 -0 -0 -0 -0 -0 -0 -0 -0 -0 -0
Wind_Speed
27 28 30 33 31 28 29 30 30 27 22 18 13 16 14 4 6 7 8 9 14 19 19 18 18 18 18 19 20 23 25 27 29 28 26 26 28 29 28 26 25 21 22
26 28 31 31 31 30 29 30 30 30 28 24 20 19 19 16 13 12 15 20 22 24 24 22 20 17 18 16 19 21 23 26 28 31 31 27 26 26 28 31 24 24 24
24 27 30 28 30 31 30 27 31 30 29 30 23 29 18 24 21 21 24 24 25 26 20 13 12 16 15 14 14 16 18 23 25 28 31 31 28 22 24 30 23 27 26
23 25 28 26 27 31 30 29 28 32 31 31 30 26 23 24 27 27 28 29 28 26 24 10 3 17 13 13 7 8 14 20 26 29 28 29 31 30 31 32 33 28 29
23 24 26 25 26 27 28 30 26 30 32 31 28 16 16 24 29 30 30 31 29 28 28 28 4 9 17 9 10 7 9 16 21 27 30 29 29 28 30 30 31 31 29
22 23 23 24 25 24 24 26 28 29 27 29 28 25 24 21 28 30 30 28 30 31 32 22 28 24 10 13 12 11 7 4 15 18 26 29 29 24 24 25 27 30 34
21 21 23 22 24 24 21 24 26 28 28 28 29 25 23 23 22 14 30 30 30 32 32 30 30 27 23 9 13 14 19 17 18 23 27 29 27 24 23 25 28 30 33
20 21 21 22 22 23 23 22 24 26 27 30 29 28 24 23 21 21 19 20 22 30 32 33 30 30 27 21 17 15 12 17 21 22 22 24 23 21 21 25 28 32 34
19 20 19 20 22 22 24 21 23 24 25 26 27 28 26 25 22 21 21 20 19 19 16 18 30 26 30 26 22 19 19 19 20 24 24 24 23 23 23 24 25 27 33
17 17 18 18 20 22 23 21 23 23 25 25 26 27 26 25 25 25 22 21 19 19 20 19 17 17 23 29 26 25 23 22 21 23 23 23 23 24 25 23 24 25 27
15 16 18 18 20 21 20 21 22 23 23 24 25 25 26 24 23 25 25 25 21 21 21 20 20 17 18 18 18 19 19 20 21 21 21 21 22 22 23 24 26 31 34
15 17 18 19 20 21 21 21 22 22 23 24 23 25 23 24 23 22 23 23 22 23 23 22 19 18 16 16 15 13 12 12 15 19 21 21 22 22 20 20 20 20 20
14 16 18 20 21 22 23 22 23 23 24 24 24 24 24 23 23 21 21 22 22 24 21 21 21 20 19 18 15 12 12 12 11 11 11 18 20 21 21 18 16 17 18
14 15 16 19 20 22 24 24 24 25 25 24 24 23 24 24 24 22 22 22 21 22 20 21 22 22 22 20 19 19 18 14 11 8 6 5 8 10 14 20 22 22 20
15 15 16 17 18 20 22 24 26 25 24 24 24 22 23 24 23 21 21 22 21 21 19 22 24 24 24 23 20 19 18 18 15 10 9 7 6 6 6 7 9 18 23
15 16 16 15 16 17 18 20 21 23 24 24 23 23 22 22 22 22 23 22 22 21 24 25 25 24 24 24 23 22 20 18 17 15 12 10 8 7 7 7 7 7 5
14 16 15 16 15 15 16 17 18 19 19 22 22 22 22 21 22 23 22 23 25 25 26 26 25 24 23 22 22 21 21 21 19 18 17 16 14 12 10 8 8 7 6
12 14 14 16 16 16 15 15 16 18 18 18 19 21 21 20 21 23 23 24 27 27 27 26 24 23 23 22 22 21 20 20 21 20 20 20 21 19 19 16 13 10 8
9 11 13 14 14 14 15 16 16 16 17 17 18 20 20 18 21 22 23 25 25 27 26 25 24 23 22 21 21 20 20 21 19 19 18 18 19 19 18 18 17 14 13
9 8 8 10 12 14 15 16 17 17 18 18 19 19 18 18 22 22 23 23 24 24 25 25 24 22 22 21 20 21 20 20 21 21 19 19 18 17 16 15 14 13 12
8 7 8 7 8 10 12 14 14 16 17 17 18 19 17 18 20 21 21 22 23 23 23 22 22 22 21 20 20 20 20 20 19 19 20 21 20 20 20 19 18 18 17
8 7 7 7 7 7 6 7 10 13 14 15 17 18 20 21 21 21 21 21 21 21 22 22 22 21 21 20 19 19 18 18 18 18 17 18 20 22 22 23 25 26 25
8 7 7 7 6 6 6 6 6 6 8 11 15 17 19 20 20 21 21 21 22 22 22 21 21 21 20 21 19 18 18 17 15 15 16 17 18 18 18 19 20 20 20
9 8 7 7 7 6 5 4 4 5 6 7 9 11 14 16 19 21 21 22 23 23 24 24 22 19 20 21 20 18 17 15 16 16 16 16 17 16 17 17 17 16 17
10 9 8 7 6 5 5 4 3 3 3 6 9 9 11 12 13 14 19 22 23 24 25 25 25 24 19 19 18 14 13 13 16 16 17 17 17 17 18 15 15 15 16
13 12 10 9 7 6 5 4 5 3 2 3 4 4 7 11 16 18 20 21 22 26 28 28 29 29 28 24 7 7 7 10 14 14 17 18 18 18 18 18 19 19 16
Wind_Direction
29 28 28 28 29 29 32 33 34 36 37 41 19 346 344 340 181 215 232 248 306 13 1 356 354 340 330 319 305 293 288 285 281 281 282 281 279 279 277 276 274 268 265
30 29 28 29 31 32 35 36 37 39 41 46 339 343 345 342 329 315 304 324 337 358 359 359 356 357 340 327 314 301 292 286 282 279 279 282 283 279 270 276 272 272 270
32 30 30 31 32 34 37 38 39 41 44 46 31 347 330 348 337 328 331 330 327 325 12 42 32 9 7 356 339 317 305 294 287 282 279 278 278 280 274 275 274 272 273
35 35 35 35 35 36 39 40 40 43 45 47 47 341 338 345 353 354 354 357 5 9 7 43 97 12 14 10 32 4 325 302 287 280 281 279 274 272 272 275 272 275 271
39 39 39 40 40 41 43 44 44 46 47 51 53 57 338 343 355 1 12 8 351 342 355 0 126 196 251 198 33 45 5 315 297 286 277 280 277 275 274 274 272 270 272
44 43 44 44 45 46 48 49 50 50 51 54 56 59 63 64 345 352 15 25 20 358 7 315 6 347 205 271 36 41 118 3 317 313 287 279 279 283 280 277 276 272 269
48 48 48 48 49 51 52 53 54 54 54 55 58 59 61 58 59 8 21 23 21 22 358 357 351 349 346 97 58 34 8 15 318 302 291 281 286 284 281 280 276 275 272
52 52 53 53 54 56 56 56 57 56 56 57 57 59 60 59 55 60 68 69 51 26 23 20 27 2 4 20 26 35 61 344 281 304 314 305 293 292 289 285 281 276 274
56 55 56 57 58 59 59 58 58 58 59 59 60 59 59 59 55 57 65 70 71 74 74 66 43 48 16 8 10 12 7 357 335 305 296 300 295 298 296 290 286 282 277
59 58 60 61 62 62 62 60 60 61 61 61 61 61 60 60 58 58 61 67 69 71 71 72 69 70 57 25 25 12 358 353 350 335 325 316 313 307 300 298 294 288 287
63 63 63 64 64 64 64 62 61 61 62 62 61 61 61 60 58 58 60 63 65 67 67 67 68 69 70 70 71 58 49 27 13 4 346 336 322 311 301 295 285 262 258
67 65 65 65 65 65 64 63 62 60 60 61 61 61 61 60 59 56 58 61 62 65 64 64 65 65 70 74 77 79 84 85 59 29 2 354 343 335 335 331 325 319 314
73 69 68 65 66 65 63 63 62 61 60 60 60 60 58 58 58 55 56 57 60 62 64 63 62 64 66 69 71 75 81 83 86 86 83 28 2 350 345 350 357 342 332
77 75 72 68 65 64 63 63 63 61 60 60 59 59 58 57 56 54 56 57 57 62 63 64 63 63 65 67 68 68 69 73 80 91 107 127 100 83 39 349 328 328 333
77 76 74 74 69 66 64 63 62 64 64 62 60 59 58 57 53 52 55 58 57 60 63 65 64 63 63 64 66 68 69 69 71 78 85 92 104 117 131 113 83 352 323
74 74 74 77 75 72 69 67 66 64 65 64 63 62 61 60 55 55 57 59 59 62 65 63 62 62 62 62 62 62 65 66 67 69 74 81 87 103 116 121 119 122 161
71 67 72 72 75 75 72 69 65 65 68 64 62 61 61 59 57 56 57 60 61 62 62 61 61 60 60 60 61 61 61 63 67 69 70 72 77 85 93 104 110 112 124
76 68 69 67 68 71 73 72 69 65 63 62 62 60 58 58 59 58 57 61 60 60 60 59 59 59 59 60 60 61 62 63 65 68 70 70 71 75 77 80 85 91 100
105 86 67 66 67 69 67 66 66 66 64 62 60 59 57 57 59 59 59 59 58 56 56 57 57 57 59 60 60 61 62 63 64 67 68 69 70 72 75 74 75 77 80
110 106 97 76 65 63 63 62 61 60 58 57 56 56 54 55 56 55 56 56 56 56 55 54 55 57 57 58 60 60 63 64 64 65 66 67 70 73 73 74 73 72 74
120 120 108 110 100 75 60 57 59 57 55 55 53 53 51 54 53 53 54 53 53 53 54 55 54 55 56 57 59 60 61 62 64 66 66 66 67 70 71 73 72 71 72
114 121 122 113 103 104 101 88 63 54 53 50 48 47 46 48 49 49 49 50 51 52 52 53 54 55 54 55 56 58 59 61 63 65 67 69 70 71 73 73 71 71 69
111 112 115 121 118 108 97 92 88 78 62 51 43 40 39 40 41 42 44 44 45 46 47 51 52 53 55 55 57 57 58 59 62 65 66 67 68 70 72 71 70 66 62
104 109 109 108 107 110 109 111 99 82 66 55 48 41 38 36 33 32 35 36 37 39 40 41 46 50 51 53 54 56 57 57 61 65 68 68 67 68 68 66 64 63 61
93 94 98 101 106 112 114 113 114 90 75 51 40 37 34 32 31 32 27 24 25 27 28 32 35 38 47 51 52 53 52 54 61 63 66 66 66 65 64 66 64 62 61
78 80 86 91 95 97 93 91 76 80 63 49 41 34 30 25 20 17 16 16 17 12 9 13 16 19 25 36 33 28 35 51 60 62 64 64 64 65 64 64 63 63 64